Regional Weather Roundup
Issued by NWS Raleigh/Durham, NC

Home | Current Version | Previous Version | Text Only | Print | Product List | Glossary On
Versions: 1 2 3 4 5 6 7 8 9 10 11 12 13 14 15 16 17 18 19 20 21 22 23 24 25 26 27
000
ASUS42 KRAH 241910
RWRRAH
NORTH CAROLINA WEATHER ROUNDUP
NATIONAL WEATHER SERVICE RALEIGH NC
300 PM EDT WED AUG 24 2016

NOTE: "FAIR" INDICATES FEW OR NO CLOUDS BELOW 12,000 FEET WITH NO
SIGNIFICANT WEATHER AND/OR OBSTRUCTIONS TO VISIBILITY.

NCZ001-053-055-056-065-067-242000-
WESTERN NORTH CAROLINA

CITY           SKY/WX    TMP DP  RH WIND       PRES   REMARKS
ASHEVILLE      CLOUDY    77  65  66 SE3       30.33F
JEFFERSON      CLOUDY    68  64  85 CALM      30.37F
MORGANTON      CLOUDY    79  69  71 CALM      30.33F
HICKORY        CLOUDY    78  70  76 SW8       30.28F
RUTHERFORDTON    N/A     79  70  72 CALM      30.29F
MOUNT AIRY     CLOUDY    82  72  71 CALM      30.29F
BOONE          PTSUNNY   73  61  65 CALM      30.38F
$$

NCZ021-022-025-041-071-084-088-242000-
CENTRAL NORTH CAROLINA

CITY           SKY/WX    TMP DP  RH WIND       PRES   REMARKS
CHARLOTTE      PTSUNNY   88  64  44 VRB3      30.26F
GREENSBORO     CLOUDY    83  64  52 NW7       30.26F
WINSTON-SALEM  CLOUDY    82  65  56 VRB3      30.28F
RALEIGH-DURHAM CLOUDY    85  61  44 SE5       30.26F
FORT BRAGG     CLOUDY    86  63  45 NE7       30.23F
FAYETTEVILLE   CLOUDY    88  63  43 NE8       30.24F
BURLINGTON     CLOUDY    85  63  47 VRB5      30.26F
LAURINBURG     MOSUNNY   90  58  33 N6        30.24F
$$

NCZ011-015-027-028-043-044-047-080-103-242000-
NORTHEASTERN NORTH CAROLINA

CITY           SKY/WX    TMP DP  RH WIND       PRES   REMARKS
ROCKY MT-WILSO MOSUNNY   86  62  44 NE9G17    30.25F
GREENVILLE     MOSUNNY   86  61  42 N10       30.25F
WASHINGTON     MOSUNNY   83  60  45 N9        30.24F
ELIZABETH CITY MOSUNNY   82  64  54 NE7       30.25F
MANTEO         MOSUNNY   82  71  68 NE10      30.24F
CAPE HATTERAS  CLOUDY    81  72  74 NE7       30.22F
$$

NCZ078-087-090-091-093-098-101-242000-
SOUTHEASTERN NORTH CAROLINA

CITY           SKY/WX    TMP DP  RH WIND       PRES   REMARKS
LUMBERTON      MOSUNNY   87  62  43 NE6       30.23F
GOLDSBORO      CLOUDY    86  61  42 N10       30.23F
KINSTON        CLOUDY    84  61  45 N6G12     30.25F
KENANSVILLE    NOT AVBL
NEW BERN       MOSUNNY   83  63  50 VRB5      30.24F
CHERRY POINT   PTSUNNY   85  66  53 NE10      30.23F
BEAUFORT       CLOUDY    80  69  69 NE12      30.22F
JACKSONVILLE   MOSUNNY   85  58  39 NE6       30.22F
WILMINGTON     MOSUNNY   86  61  42 NE12      30.22F
$$





USA.gov is the U.S. government's official web portal to all federal, state and local government web resources and services.